Terminal Aerodrome Forecast
Issued by NWS

Home | Current Version | Previous Version | Text Only | Print | Product List | Glossary On
Versions: 1 2 3 4 5 6 7 8 9 10 11 12 13 14 15 16 17 18 19 20 21
000
FTUS43 KSGF 031100
TAFBBG
TAF
KBBG 031124Z 0312/0412 VRB03KT 2SM BR OVC003
      TEMPO 0312/0313 3/4SM BR
     FM031400 15005KT 4SM BR OVC005
     FM031500 15005KT 6SM HZ BKN020
     FM031700 15006KT P6SM SCT030 SCT250
     FM040000 14004KT P6SM SCT250
     FM040900 VRB03KT 4SM BR BKN010=

USA.gov is the U.S. government's official web portal to all federal, state and local government web resources and services.